This demonstration page uses our WeatherBlox Daily Observations layout. Learn more.

Left ArrowRight Arrow

Hourly Observations for June 8, 2018

Temp ( °F °C ) Dew Point ( °F °C ) Humidity (%) Winds ( mph kmh ) Pressure ( in mb ) Visibility ( mi km ) Precip ( " mm )
12:53 am 00:53 Clear 57 13.9 52 11.1 83 83 SW 6 9 29.85 1011 10 16 0.00 0.00
1:53 am 01:53 Clear 58 14.4 53 11.7 84 84 ENE 10 17 29.88 1012 10 16 0.00 0.00
2:53 am 02:53 Clear 55 12.8 54 12.2 96 96 Calm 29.88 1012 10 16 0.00 0.00
3:53 am 03:53 Clear 53 11.7 52 11.1 96 96 SSE 3 6 29.87 1011 10 16 0.00 0.00
4:53 am 04:53 Clear 50 10 50 10 100 100 ESE 3 6 29.88 1012 10 16 0.00 0.00
5:53 am 05:53 Sunny 53 11.7 52 11.1 96 96 SE 5 7 29.87 1012 10 16 0.00 0.00
6:53 am 06:53 Sunny 56 13.3 55 12.8 97 97 Calm 29.88 1012 10 16 0.00 0.00
7:53 am 07:53 Mostly Cloudy 62 16.7 56 13.3 80 80 SW 9 15 29.89 1012 10 16 0.00 0.00
8:53 am 08:53 Cloudy 67 19.4 54 12.2 63 63 SW 14 22 29.89 1012 10 16 0.00 0.00
9:53 am 09:53 Mostly Sunny 72 22.2 54 12.2 53 53 SW 15 24 29.90 1012 10 16 0.00 0.00
10:53 am 10:53 Mostly Cloudy 70 21.1 53 11.7 55 55 SW 13 20 29.91 1013 10 16 0.00 0.00
11:53 am 11:53 Sunny 79 26.1 50 10 36 36 WNW 10 17 29.89 1012 10 16 0.00 0.00
12:53 pm 12:53 Sunny 81 27.2 45 7.2 28 28 WNW 9 15 29.89 1012 10 16 0.00 0.00
1:53 pm 13:53 Sunny 82 27.8 44 6.7 26 26 VRB 5 7 29.88 1012 10 16 0.00 0.00
2:53 pm 14:53 Partly Cloudy 82 27.8 45 7.2 27 27 NW 3 6 29.88 1012 10 16 0.00 0.00
3:53 pm 15:53 Mostly Sunny 81 27.2 46 7.8 29 29 S 7 11 29.88 1012 10 16 0.00 0.00
4:53 pm 16:53 Mostly Cloudy 85 29.4 46 7.8 26 26 VRB 7 11 29.87 1011 10 16 0.00 0.00
5:53 pm 17:53 Sunny 83 28.3 46 7.8 27 27 SSW 8 13 29.85 1011 10 16 0.00 0.00
6:53 pm 18:53 Sunny 82 27.8 46 7.8 28 28 S 7 11 29.85 1011 10 16 0.00 0.00
7:53 pm 19:53 Sunny 81 27.2 45 7.2 28 28 SSW 6 9 29.83 1010 10 16 0.00 0.00
8:53 pm 20:53 Sunny 72 22.2 55 12.8 55 55 S 7 11 29.84 1011 10 16 0.00 0.00
9:53 pm 21:53 Clear 65 18.3 55 12.8 70 70 SE 6 9 29.85 1011 10 16 0.00 0.00
10:53 pm 22:53 Clear 67 19.4 52 11.1 59 59 ESE 6 9 29.85 1011 10 16 0.00 0.00
11:53 pm 23:53 Clear 62 16.7 52 11.1 70 70 Calm 29.84 1010 10 16 0.00 0.00

Powered by AerisWeather